| time (UTC) | temp F | wind direction | speed MPH | gust MPH | rain 1hr in | rain 24hr in | rain mn in | humidity % | barometer mb |
| 20260506000014 | 42 | 355 | 10.0 | 15.0 | 0.00 | 0.00 | 0.00 | 44 | 1009.2 |
| 20260505234554 | 42 | 5 | 10.0 | 17.0 | 0.00 | 0.00 | 0.00 | 43 | 1008.9 |
| 20260505233059 | 44 | 355 | 9.0 | 14.0 | 0.00 | 0.00 | 0.00 | 40 | 1008.9 |
| 20260505231545 | 44 | 350 | 3.0 | 14.0 | 0.00 | 0.00 | 0.00 | 32 | 1008.8 |
| 20260505230047 | 45 | 351 | 8.0 | 15.0 | 0.00 | 0.00 | 0.00 | 40 | 1008.8 |
| 20260505224538 | 45 | 5 | 10.0 | 15.0 | 0.00 | 0.00 | 0.00 | 36 | 1008.7 |
| 20260505223033 | 45 | 360 | 8.0 | 15.0 | 0.00 | 0.00 | 0.00 | 27 | 1008.4 |
| 20260505221527 | 45 | 350 | 3.0 | 11.0 | 0.00 | 0.00 | 0.00 | 100 | 1008.3 |
| 20260505220024 | 44 | 304 | 0.0 | 3.0 | 0.00 | 0.00 | 0.00 | 34 | 1008.2 |
| 20260505214505 | 44 | 302 | 0.0 | 0.0 | 0.00 | 0.00 | 0.00 | 27 | 1008.1 |
| 20260505213001 | 45 | 302 | 0.0 | 6.0 | 0.00 | 0.00 | 0.00 | 45 | 1007.9 |
| 20260505211557 | 45 | 294 | 4.0 | 10.0 | 0.00 | 0.00 | 0.00 | 52 | 1007.7 |
| 20260505210052 | 48 | 227 | 3.0 | 14.0 | 0.00 | 0.00 | 0.00 | 51 | 1007.3 |
| 20260505204551 | 48 | 159 | 3.0 | 14.0 | 0.00 | 0.00 | 0.00 | 52 | 1007.4 |
| 20260505203050 | 48 | 165 | 2.0 | 10.0 | 0.00 | 0.00 | 0.00 | 52 | 1007.3 |
| 20260505201542 | 48 | 227 | 5.0 | 12.0 | 0.00 | 0.00 | 0.00 | 51 | 1007.2 |
| 20260505200037 | 49 | 223 | 2.0 | 11.0 | 0.00 | 0.00 | 0.00 | 52 | 1007.1 |
| 20260505194533 | 49 | 268 | 5.0 | 13.0 | 0.00 | 0.00 | 0.00 | 47 | 1007.0 |
| 20260505193010 | 49 | 200 | 3.0 | 11.0 | 0.00 | 0.00 | 0.00 | 48 | 1007.1 |
| 20260505191506 | 49 | 282 | 1.0 | 10.0 | 0.00 | 0.00 | 0.00 | 51 | 1007.0 |
| 20260505190049 | 48 | 164 | 5.0 | 12.0 | 0.00 | 0.00 | 0.00 | 48 | 1007.0 |
| 20260505184552 | 47 | 239 | 3.0 | 9.0 | 0.00 | 0.00 | 0.00 | 50 | 1006.8 |
| 20260505183040 | 47 | 258 | 1.0 | 9.0 | 0.00 | 0.00 | 0.00 | 52 | 1006.9 |
| 20260505181536 | 47 | 233 | 3.0 | 11.0 | 0.00 | 0.00 | 0.00 | 51 | 1006.8 |
| 20260505180038 | 47 | 234 | 3.0 | 13.0 | 0.00 | 0.00 | 0.00 | 50 | 1006.6 |
| 20260505174527 | 47 | 230 | 5.0 | 14.0 | 0.00 | 0.00 | 0.00 | 49 | 1006.4 |
| 20260505173023 | 47 | 215 | 3.0 | 8.0 | 0.00 | 0.00 | 0.00 | 49 | 1006.2 |
| 20260505171519 | 46 | 263 | 3.0 | 10.0 | 0.00 | 0.00 | 0.00 | 49 | 1006.3 |
| 20260505170100 | 46 | 232 | 4.0 | 9.0 | 0.00 | 0.00 | 0.00 | 48 | 1006.3 |
| 20260505164556 | 45 | 251 | 4.0 | 8.0 | 0.00 | 0.00 | 0.00 | 48 | 1006.3 |
| 20260505163052 | 45 | 212 | 1.0 | 7.0 | 0.00 | 0.00 | 0.00 | 48 | 1006.3 |
| 20260505161548 | 44 | 269 | 3.0 | 8.0 | 0.00 | 0.00 | 0.00 | 47 | 1006.3 |
| 20260505153042 | 43 | 249 | 2.0 | 8.0 | 0.00 | 0.00 | 0.00 | 30 | 1006.3 |
| 20260505151530 | 42 | 253 | 0.0 | 4.0 | 0.00 | 0.00 | 0.00 | 18 | 1006.3 |
| 20260505124522 | 41 | 284 | 0.0 | 0.0 | 0.00 | 0.00 | 0.00 | 100 | 1004.5 |
| 20260505123019 | 41 | 268 | 0.0 | 0.0 | 0.00 | 0.00 | 0.00 | 100 | 1004.4 |
| 20260505121513 | 41 | 280 | 0.0 | 2.0 | 0.00 | 0.00 | 0.00 | 100 | 1004.4 |
| 20260505120012 | 41 | 260 | 0.0 | 3.0 | 0.00 | 0.00 | 0.00 | 100 | 1004.1 |
| 20260505114506 | 41 | 254 | 0.0 | 5.0 | 0.00 | 0.00 | 0.00 | 100 | 1004.1 |
| 20260505113108 | 41 | 257 | 1.0 | 4.0 | 0.00 | 0.00 | 0.00 | 100 | 1003.8 |
| 20260505111556 | 40 | 272 | 1.0 | 5.0 | 0.00 | 0.00 | 0.00 | 100 | 1003.5 |
| 20260505101529 | 40 | 265 | 0.0 | 0.0 | 0.00 | 0.00 | 0.00 | 100 | 1002.5 |
| 20260505100028 | 40 | 255 | 0.0 | 0.0 | 0.00 | 0.00 | 0.00 | 100 | 1002.3 |
| 20260505094519 | 40 | 291 | 0.0 | 0.0 | 0.00 | 0.00 | 0.00 | 100 | 1002.2 |
| 20260505093013 | 41 | 291 | 0.0 | 0.0 | 0.00 | 0.00 | 0.00 | 100 | 1002.0 |
| 20260505091511 | 41 | 291 | 0.0 | 0.0 | 0.00 | 0.00 | 0.00 | 100 | 1002.0 |
| 20260505090104 | 41 | 291 | 0.0 | 0.0 | 0.00 | 0.00 | 0.00 | 100 | 1001.9 |
| 20260505084600 | 41 | 290 | 0.0 | 0.0 | 0.00 | 0.00 | 0.00 | 100 | 1001.8 |
| 20260505083037 | 41 | 291 | 0.0 | 0.0 | 0.00 | 0.00 | 0.00 | 100 | 1001.7 |
| 20260505081517 | 41 | 298 | 0.0 | 0.0 | 0.00 | 0.00 | 0.00 | 100 | 1001.5 |
| 20260505080106 | 40 | 302 | 0.0 | 0.0 | 0.00 | 0.00 | 0.00 | 100 | 1001.6 |
| 20260505074556 | 41 | 302 | 0.0 | 0.0 | 0.00 | 0.00 | 0.00 | 100 | 1001.5 |
| 20260505073058 | 41 | 305 | 0.0 | 0.0 | 0.00 | 0.00 | 0.00 | 100 | 1001.5 |
| 20260505071554 | 41 | 306 | 0.0 | 0.0 | 0.00 | 0.00 | 0.00 | 100 | 1001.4 |
| 20260505070050 | 41 | 306 | 0.0 | 0.0 | 0.00 | 0.00 | 0.00 | 100 | 1001.3 |
| 20260505064539 | 41 | 309 | 0.0 | 0.0 | 0.00 | 0.00 | 0.00 | 100 | 1001.4 |
| 20260505063039 | 41 | 310 | 0.0 | 0.0 | 0.00 | 0.00 | 0.00 | 100 | 1001.1 |
| 20260505061532 | 42 | 311 | 0.0 | 1.0 | 0.00 | 0.00 | 0.00 | 6 | 1001.2 |
| 20260505060015 | 43 | 360 | 0.0 | 0.0 | 0.00 | 0.00 | 0.00 | 14 | 1001.0 |
| 20260505054508 | 43 | 360 | 0.0 | 0.0 | 0.00 | 0.00 | 0.00 | 19 | 1000.9 |
| 20260505053006 | 44 | 360 | 0.0 | 0.0 | 0.00 | 0.00 | 0.00 | 13 | 1000.8 |
| 20260505051600 | 44 | 360 | 0.0 | 5.0 | 0.00 | 0.00 | 0.00 | 14 | 1000.4 |
| 20260505041552 | 46 | 360 | 2.0 | 10.0 | 0.00 | 0.00 | 0.00 | 48 | 999.7 |
| 20260505040027 | 47 | 5 | 2.0 | 9.0 | 0.00 | 0.00 | 0.00 | 51 | 999.6 |
| 20260505034522 | 47 | 9 | 3.0 | 9.0 | 0.00 | 0.00 | 0.00 | 50 | 999.3 |
| 20260505033019 | 47 | 16 | 0.0 | 4.0 | 0.00 | 0.00 | 0.00 | 50 | 999.2 |
| 20260505031514 | 47 | 24 | 0.0 | 4.0 | 0.00 | 0.00 | 0.00 | 49 | 999.0 |
| 20260505030009 | 47 | 25 | 0.0 | 6.0 | 0.00 | 0.00 | 0.00 | 47 | 998.8 |
| 20260505024506 | 47 | 17 | 0.0 | 4.0 | 0.00 | 0.00 | 0.00 | 44 | 998.5 |
| 20260505023001 | 47 | 13 | 0.0 | 8.0 | 0.00 | 0.00 | 0.00 | 42 | 998.4 |
| 20260505021556 | 47 | 28 | 0.0 | 3.0 | 0.00 | 0.00 | 0.00 | 38 | 998.0 |
| 20260505020058 | 48 | 17 | 1.0 | 12.0 | 0.00 | 0.00 | 0.00 | 39 | 997.8 |
| 20260505014559 | 48 | 5 | 1.0 | 6.0 | 0.00 | 0.00 | 0.00 | 36 | 997.5 |
| 20260505013038 | 48 | 26 | 0.0 | 9.0 | 0.00 | 0.00 | 0.00 | 32 | 997.3 |
| 20260505011534 | 48 | 19 | 0.0 | 6.0 | 0.00 | 0.00 | 0.00 | 37 | 997.2 |
| 20260505010022 | 49 | 30 | 1.0 | 11.0 | 0.00 | 0.00 | 0.00 | 35 | 996.6 |
| 20260505004518 | 49 | 9 | 0.0 | 8.0 | 0.00 | 0.00 | 0.00 | 29 | 996.4 |
| 20260505003023 | 49 | 355 | 1.0 | 9.0 | 0.00 | 0.00 | 0.00 | 11 | 996.2 |
| 20260505001509 | 48 | 13 | 0.0 | 5.0 | 0.00 | 0.00 | 0.00 | 100 | 996.2 |